sat.trackr.live / text

‹ back to catalog

STARLINK-33892

NORAD 63783 · 2025-091J

PAYLOAD ACTIVE UNKNOWN

§ Identity

Operator
Country
US
Launch date
2025-05-02
Launch site
AFETR
Launch vehicle
Mass (kg)
RCS (m²)

Purposes: comms

External: N2YO · Heavens-Above · Gunter

§ Orbital elements

Epoch: 2026-09-20T08:30:38.837952Z

Period
94.26 min
Inclination
43.0054°
Eccentricity
0.0001650
Mean motion
15.27630570 rev/d
Perigee alt
481.8 km
Apogee alt
484.0 km
Semi-major
6,861.0 km
B*
1.2019e-3
RAAN
33.1660°
Arg perigee
260.3456°
Mean anomaly
99.7209°
Rev number
7,867

§ Raw data

STARLINK-338921 63783U 25091J   26263.35461618  .00033010  00000+0  12019-2 0  99982 63783  43.0054  33.1660 0001650 260.3456  99.7209 15.27630570 78672

JSON: /api/v1/satellites/63783 · /tle

For live sub-satellite position, see the globe view (requires WebGL).

§ Visibility from observer

Set your observer location to see the next 7 days of passes ≥ 10°. The values pass through the URL so the page stays shareable.

No JS? Fill the form by hand. The geolocation button needs JavaScript.